User: anonymous   Login
Location: Newark
(26.8229°N, 81.7649°W)
Time: 17:59:46
(UTC+00:00)
Language:

JUGNU - Orbit

View from above orbital plane
View from above orbital plane
View from above satellite
View from above satellite

Ground track
Ground track

The orbit data is extracted from the following two-line orbital elements,

1 37839U 11058B   20100.99073541  .00000308  00000-0  22351-4 0  9994
2 37839  19.9622 337.9514 0018829 353.7252 127.6756 14.12676621439206
Epoch (UTC): 09 April 2020 23:46:39
Eccentricity: 0.0018829
inclination: 19.9622°
perigee height: 836 km
apogee height: 864 km
right ascension of ascending node: 337.9514°
argument of perigee: 353.7252°
revolutions per day: 14.12676621
mean anomaly at epoch: 127.6756°
orbit number at epoch: 43920

The dashed part of the orbit path shows where the satellite is in the earth's shadow,  

DLR